Location: Caltech
(34.1382°N, 118.1253°W)
Time: 06:57:01
(UTC-07:00)

KITSAT 1 - Visible Passes

Search period start: 30 August 2015 00:00
Search period end: 09 September 2015 00:00
Orbit: 1304 x 1326 km, 66.1° (Epoch: 30 August)

Date Brightness Start Highest point End Pass type
(mag) Time Alt. Az. Time Alt. Az. Time Alt. Az.
30 Aug 12.3 04:59:44 10° N 05:06:22 28° NE 05:13:11 10° ESE visible
30 Aug 10.9 21:18:00 10° SW 21:25:53 55° WNW 21:33:50 10° NNE visible
30 Aug 12.9 23:20:13 10° WNW 23:23:28 12° NW 23:26:16 10° NNW visible
31 Aug 11.7 05:15:22 10° NNW 05:22:53 40° NE 05:30:26 10° ESE visible
31 Aug 10.5 19:39:17 10° S 19:46:43 44° ESE 19:54:19 10° NE visible
31 Aug 11.5 21:34:48 10° WSW 21:42:14 38° NW 21:49:38 10° NNE visible
01 Sep 12.9 03:38:30 10° N 03:41:44 13° NE 03:45:23 10° ENE visible
01 Sep 11.0 05:31:11 10° NNW 05:39:12 58° ENE 05:47:11 10° SE visible
01 Sep 10.2 19:54:42 10° SSW 20:02:39 67° ESE 20:10:43 10° NNE visible
01 Sep 12.1 21:52:07 10° WSW 21:58:46 26° NW 22:05:15 10° N visible
02 Sep 12.6 03:53:22 10° N 03:58:37 19° NE 04:04:11 10° E visible
02 Sep 10.4 05:47:10 10° NNW 05:55:22 85° ENE 06:03:30 10° SSE visible
02 Sep 10.3 20:10:37 10° SSW 20:18:42 83° WNW 20:26:52 10° NNE visible
02 Sep 12.6 22:10:02 10° W 22:15:29 18° NW 22:20:38 10° N visible
03 Sep 12.2 04:08:45 10° N 04:15:19 27° NE 04:22:04 10° ESE visible
03 Sep 10.9 20:26:56 10° SW 20:34:52 57° WNW 20:42:50 10° NNE visible
03 Sep 12.9 22:28:56 10° WNW 22:32:23 13° NW 22:35:25 10° NNW visible
04 Sep 11.6 04:24:23 10° NNW 04:31:50 39° NE 04:39:21 10° ESE visible
04 Sep 11.6 20:43:43 10° WSW 20:51:12 39° NW 20:58:39 10° NNE visible
05 Sep 12.9 02:47:38 10° NNE 02:50:39 13° NE 02:54:05 10° ENE visible
05 Sep 10.9 04:40:12 10° NNW 04:48:11 57° ENE 04:56:08 10° SE visible
05 Sep 12.2 21:00:59 10° WSW 21:07:43 27° NW 21:14:17 10° N visible
06 Sep 12.5 03:02:25 10° N 03:07:33 18° NE 03:13:00 10° E visible
06 Sep 10.3 04:56:10 10° NNW 05:04:21 83° ENE 05:12:29 10° SSE visible
06 Sep 12.6 21:18:51 10° W 21:24:25 19° NW 21:29:40 10° N visible
07 Sep 12.1 03:17:47 10° N 03:24:16 26° NE 03:30:56 10° ESE visible
07 Sep 10.2 05:12:19 10° NNW 05:20:24 68° WSW 05:28:24 10° SSE visible
07 Sep 11.0 19:35:53 10° SW 19:43:50 59° WNW 19:51:50 10° NNE visible
07 Sep 12.9 21:37:38 10° WNW 21:41:19 13° NW 21:44:33 10° N visible
08 Sep 11.5 03:33:25 10° NNW 03:40:48 38° NE 03:48:15 10° ESE visible
08 Sep 10.5 05:28:42 10° NW 05:36:20 45° WSW 05:43:50 10° S visible
08 Sep 11.7 19:52:38 10° WSW 20:00:10 40° NW 20:07:40 10° NNE visible
